Location: Rioux
(40.7500°S, 175.7500°E)
Time: 09:35:06
(UTC+00:00)

Cosmos 1110 Rocket - Pass Details

Date: 12 June 2024
Orbit: 750 x 778 km, 74.0° (Epoch: 20 July)

Event Time Altitude Azimuth Distance (km) Brightness Sun altitude
Exits shadow 18:08:13 11° 201° (SSW) 2,252 6.1 -16.5°
Maximum altitude 18:13:19 85° 286° (WNW) 776 3.9 -15.6°
Drops below altitude 10° 18:18:33 10° 15° (NNE) 2,300 6.9 -14.6°
Sets 18:20:55 0° 16° (NNE) 3,222 7.7 -14.2°
